Location: *
(50.3440°N, 18.6237°E)
Time: 16:57:07
(UTC+00:00)

YAOGAN 6 - Pass Details

Date: 30 November 2020
Orbit: 465 x 502 km, 97.0° (Epoch: 17 January)

Event Time Altitude Azimuth Distance (km) Brightness Sun altitude
Rises 15:37:31 0° 162° (SSE) 2,568 6.3 -8.1°
Reaches altitude 10° 15:39:36 10° 160° (SSE) 1,685 5.4 -8.4°
Maximum altitude 15:43:13 76° 76° (ENE) 511 2.5 -8.9°
Drops below altitude 10° 15:46:49 10° 350° (N) 1,678 5.2 -9.4°
Sets 15:48:53 0° 349° (N) 2,557 6.1 -9.7°
